This demonstration page uses our WeatherBlox Daily Observations layout. Learn more.

Left ArrowRight Arrow

40.92501, -98.34201

Hourly Observations for September 21, 2022

Temp ( °F °C ) Dew Point ( °F °C ) Humidity (%) Winds ( mph kmh ) Pressure ( in mb ) Visibility ( mi km ) Precip ( " mm )
12:53 am 00:53 Clear 69 20.6 60 15.6 73 73 N 9 15 29.96 1015 10 16 0.00 0.00
4:53 am 04:53 Clear with Light Rain 66 18.9 53 11.7 63 63 NNE 16 26 30.01 1016 10 16 0.01 0.13
5:53 am 05:53 Clear with Light Rain 64 17.8 50 10 60 60 NNE 18 30 30.03 1017 10 16 0.01 0.13
6:53 am 06:53 Clear with Light Rain 63 17.2 49 9.4 60 60 NNE 18 30 30.05 1018 10 16 0.01 0.13
7:53 am 07:53 Sunny 62 16.7 45 7.2 53 53 NNE 18 30 30.10 1019 10 16 0.01 0.13
8:53 am 08:53 Sunny 63 17.2 43 6.1 48 48 NE 20 31 30.13 1020 10 16 0.00 0.00
9:53 am 09:53 Mostly Sunny 64 17.8 42 5.6 45 45 NNE 17 28 30.17 1022 10 16 0.00 0.00
10:53 am 10:53 Cloudy 64 17.8 41 5 43 43 NNE 24 39 30.19 1022 10 16 0.00 0.00
11:53 am 11:53 Cloudy 63 17.2 40 4.4 43 43 NNE 22 35 30.20 1023 10 16 0.00 0.00
12:53 pm 12:53 Cloudy with Thunderstorms 62 16.7 42 5.6 48 48 N 12 19 30.28 1025 10 16 0.01 0.13
1:07 pm 13:07 Cloudy with Light Rain 59 15 46 7.8 62 62 N 14 22 30.26 1025 9 14 0.01 0.13
1:53 pm 13:53 Cloudy with Light Rain 58 14.4 49 9.4 72 72 NE 8 13 30.25 1024 10 16 0.03 0.76
2:53 pm 14:53 Mostly Cloudy 60 15.6 46 7.8 60 60 NE 9 15 30.21 1023 10 16 0.01 0.13
3:53 pm 15:53 Cloudy 60 15.6 44 6.7 55 55 N 13 20 30.22 1023 10 16 0.01 0.13
4:53 pm 16:53 Cloudy with Light Rain 55 12.8 48 8.9 77 77 N 14 22 30.24 1024 10 16 0.01 0.13
5:53 pm 17:53 Mostly Cloudy 56 13.3 48 8.9 75 75 N 10 17 30.23 1024 10 16 0.01 0.13
6:53 pm 18:53 Mostly Cloudy 56 13.3 49 9.4 77 77 N 7 11 30.23 1024 10 16 0.00 0.00
7:53 pm 19:53 Clear 56 13.3 48 8.9 75 75 NNW 6 9 30.24 1024 10 16 0.00 0.00
8:53 pm 20:53 Clear 56 13.3 48 8.9 75 75 N 3 6 30.25 1024 10 16 0.00 0.00
9:53 pm 21:53 Clear 56 13.3 49 9.4 77 77 Calm 30.27 1025 10 16 0.00 0.00
10:53 pm 22:53 Clear 55 12.8 49 9.4 80 80 NW 6 9 30.29 1026 10 16 0.00 0.00
11:53 pm 23:53 Clear 54 12.2 49 9.4 83 83 NW 6 9 30.29 1026 10 16 0.00 0.00

Powered by AerisWeather